User: anonymous
Location: Caltech
(34.1382°N, 118.1253°W)
Time: 14:36:51
(UTC-07:00)
Language:

Cosmos 2219 Rocket - Orbit

View from above orbital plane
View from above orbital plane
View from above satellite
View from above satellite

Ground track
Ground track

The orbit data is extracted from the following two-line orbital elements,

1 22220U 92076B   14259.93458979 -.00000256  00000-0 -10497-3 0  3990
2 22220 071.0037 013.0024 0013408 352.6769 150.7351 14.16324530128576
Epoch (UTC): 16 September 2014 22:25:48
Eccentricity: 0.0013408
inclination: 71.0037°
perigee height: 828 km
apogee height: 847 km
right ascension of ascending node: 13.0024°
argument of perigee: 352.6769°
revolutions per day: 14.16324530
mean anomaly at epoch: 150.7351°
orbit number at epoch: 12857

The dashed part of the orbit path shows where the satellite is in the earth's shadow,  

DLR